Regional Weather Roundup
Issued by NWS Midland/Odessa, TX

Skip options and go directly to product.
Home | Oldest Version | Next Version | Current Version | All | Text Only | Save Text | Print | Product List | Glossary On

Skip product version selection by date and time.   
378
ASUS44 KMAF 282201
RWRMAF
MIDLAND AREA WEATHER ROUNDUP
NATIONAL WEATHER SERVICE MIDLAND TX
500 PM CDT THU MAY 28 2015

...IN SOUTHWEST TEXAS AND SOUTHEAST NEW MEXICO...

CITY           SKY/WX    TMP DP  RH WIND       PRES   REMARKS
ALPINE         MOSUNNY   91  49  23 W14G24    30.02F
ANDREWS        FAIR      76  65  68 S8        29.93F
ARTESIA        PTSUNNY   86  57  37 SE18      29.88F
BIG SPRING     CLOUDY    84  59  42 S13       29.97F
CARLSBAD       PTSUNNY   82  61  48 SE25G33   29.87F
DRYDEN           N/A     92  66  42 E15G24    29.87F
FORT STOCKTON  TSTM      67  63  87 NE16      29.94F FOG
GUAD PASS      PTSUNNY   83  38  20 SW8G22    30.03F
HOBBS          SUNNY     73  66  78 SE12      29.94F
MARFA          MOSUNNY   88  50  27 W14       30.02F
MIDLAND AIRPK  CLOUDY    82  61  47 SW14G20   29.99R
MIDLAND INTL   TSTM      75  63  66 SW12      30.00R
ODESSA         TSTM      68  58  70 SW25      30.05R
PECOS          CLOUDY    67  58  73 CALM      29.89S
PRESIDIO       FAIR      96  43  16 S9        29.87F
SEMINOLE       CLOUDY    78  63  59 S5        29.97F
SNYDER         PTSUNNY   72  60  64 N18       30.00R
WINK           CLOUDY    80  52  37 W15G21    29.86S
$$
...OTHER STATIONS IN TEXAS...

CITY           SKY/WX    TMP DP  RH WIND       PRES   REMARKS
ABILENE        MOSUNNY   85  68  56 S15G24    29.95S
AMARILLO       CLOUDY    66  60  81 S9        29.98F
AUSTIN         MOSUNNY   87  72  60 SE20      29.93F
BROWNSVILLE    MOSUNNY   87  74  64 SE15      29.94F
CORPUS CHRISTI PTSUNNY   87  74  64 SE22G28   29.95F
DALLAS FTW     PTSUNNY   86  68  54 S14       29.95S
DEL RIO        PTSUNNY   88  71  57 SE15G24   29.86F
EL PASO        MOSUNNY   93  13   5 SW14G26   29.93F
HOUSTON INT    CLOUDY    84  74  71 SE12      30.00F
LUBBOCK        CLOUDY    60  56  86 SE16      30.00F THUNDER
SAN ANGELO     PTSUNNY   86  66  51 S16G23    29.93R
SAN ANTONIO    PTSUNNY   87  73  62 SE18G30   29.94F
WACO           PTSUNNY   83  72  69 SE15      29.94F
WICHITA FALLS  NOT AVBL
$$
...OTHER LOCATIONS IN NEW MEXICO...

CITY           SKY/WX    TMP DP  RH WIND       PRES   REMARKS
ALAMAGORDO     SUNNY     90  18   7 NW8       29.94F
ALBUQUERQUE    MOSUNNY   82  25  12 S13       30.01F
CANNON AFB     LGT RAIN  66  59  77 SE17G26   29.97F
CLOVIS         CLOUDY    66  55  68 SE20        N/A
HOLLOMAN AFB   SUNNY     90  15   6 W9        29.92F
ROSWELL        SUNNY     90  52  27 E8        29.87F
RUIDOSO        SUNNY     79  18  10 W16G25    30.13F
SANTA FE       SUNNY     80  19  10 W20G29    30.06F
TRUTH OR CONSE MOSUNNY   87  19   8 MISG      29.96F
TUCUMCARI      MOSUNNY   82  50  32 S13       29.88F
$$

USA.gov is the U.S. government's official web portal to all federal, state and local government web resources and services.